This is the latest recevied weather packets stored in our database for station/object KI2K. If no packets are shown the sender has not sent any weather packets the latest 10 day(s).
| Time | Temp. | Humidity | Pressure | Rain* | Wind** | Luminosity | Snow |
|---|---|---|---|---|---|---|---|
| 1777842343 | 17.22° C | 53% | 1011.4 hPa | 0 mm | - | 223 W/m² | - |
| 1777842039 | 16.11° C | 53% | 1011.8 hPa | 0 mm | - | 567 W/m² | - |
| 1777841736 | 16.11° C | 53% | 1011.6 hPa | 0 mm | - | 182 W/m² | - |
| 1777841432 | 16.67° C | 54% | 1012 hPa | 0 mm | - | 122 W/m² | - |
| 1777841129 | 16.67° C | 53% | 1011.9 hPa | 0 mm | - | 186 W/m² | - |
| 1777840826 | 16.67° C | 53% | 1012.2 hPa | 0 mm | - | 184 W/m² | - |
| 1777840523 | 16.67° C | 53% | 1012.1 hPa | 0 mm | - | 211 W/m² | - |
| 1777840220 | 16.67° C | 53% | 1012.2 hPa | 0 mm | - | 292 W/m² | - |
| 1777839918 | 16.67° C | 53% | 1012.5 hPa | 0 mm | - | 189 W/m² | - |
| 1777839616 | 17.22° C | 52% | 1012.7 hPa | 0 mm | - | 276 W/m² | - |
| 1777839314 | 16.67° C | 52% | 1012.9 hPa | 0 mm | - | 346 W/m² | - |
| 1777839011 | 16.11° C | 53% | 1013 hPa | 0 mm | - | 181 W/m² | - |
| 1777838707 | 16.11° C | 52% | 1013.3 hPa | 0 mm | - | 214 W/m² | - |
| 1777838404 | 16.67° C | 53% | 1013.4 hPa | 0 mm | - | 140 W/m² | - |
| 1777838101 | 16.67° C | 52% | 1013.4 hPa | 0 mm | - | 198 W/m² | - |
| 1777837797 | 17.22° C | 52% | 1013.5 hPa | 0 mm | - | 396 W/m² | - |
| 1777837495 | 17.22° C | 51% | 1013.6 hPa | 0 mm | - | 353 W/m² | - |
| 1777837190 | 16.67° C | 53% | 1013.8 hPa | 0 mm | - | 552 W/m² | - |
| 1777836886 | 16.67° C | 52% | 1014.1 hPa | 0 mm | - | 386 W/m² | - |
| 1777836581 | 16.67° C | 53% | 1014 hPa | 0 mm | - | 298 W/m² | - |
| 1777836278 | 15.56° C | 53% | 1014.6 hPa | 0 mm | - | 190 W/m² | - |
| 1777835973 | 15.56° C | 54% | 1014.7 hPa | 0 mm | - | 152 W/m² | - |
| 1777835671 | 16.11° C | 54% | 1014.5 hPa | 0 mm | - | 164 W/m² | - |
| 1777835367 | 16.11° C | 54% | 1014.3 hPa | 0 mm | - | 269 W/m² | - |
| 1777835065 | 16.11° C | 53% | 1014 hPa | 0 mm | - | 386 W/m² | - |
* Rain latest hour (hover to see other rain measurements)
** Current wind speed in m/s (hover to see current wind gust speed)